Tracking 27126 objects as of 30-Mar-2023
HD Live streaming from Space Station
objects crossing your sky now

COSMOS 970 DEB

Track COSMOS 970 DEB now!
10-day predictions


NORAD ID: 12942
Int'l Code: 1977-121AZ
Perigee: 1,048.8 km
Apogee: 1,205.6 km
Inclination: 65.8 °
Period: 107.7 minutes
Semi major axis: 7498 km
RCS: 0.0606 m2 (small)
Launch date: December 21, 1977
Source: Commonwealth of Independent States (former USSR) (CIS)
Launch site: TYURATAM MISSILE AND SPACE COMPLEX (TTMTR)

Note: This is SATELLITE DEBRIS
Your satellite tracking list
Your tracking list is empty




NASA's NSSDC Master Catalog

Two Line Element Set (TLE):
1 12942U 77121AZ  23089.22199062  .00000382  00000-0  84670-3 0  9990
2 12942  65.8332   1.5704 0104586  21.7066 133.5718 13.37108292 36698
Source of the keplerian elements: AFSPC